EW4258 Weather Reports


Display with metric or nautical units.
time (UTC)temp
F
wind
direction
speed
MPH
gust
MPH
rain 1hr
in
rain 24hr
in
rain mn
in
humidity
%
barometer
mb
20260901121115 75 292 1.0 2.0 0.00 0.00 0.00 46 1020.4
20260901120116 75 135 2.0 1.0 0.00 0.00 0.00 45 1020.6
20260901115115 74 292 2.0 4.0 0.00 0.00 0.00 45 1020.6
20260901114115 73 202 1.0 1.0 0.00 0.00 0.00 47 1020.8
20260901113115 73 315 2.0 2.0 0.00 0.00 0.00 47 1020.8
20260901112115 73 270 2.0 2.0 0.00 0.00 0.00 50 1020.8
20260901111115 72 360 0.0 2.0 0.00 0.00 0.00 48 1020.8
20260901110115 72 360 1.0 0.0 0.00 0.00 0.00 50 1021.0
20260901105115 71 67 2.0 1.0 0.00 0.00 0.00 51 1021.0
20260901104115 71 135 2.0 0.0 0.00 0.00 0.00 54 1021.2
20260901101114 69 157 1.0 1.0 0.00 0.00 0.00 55 1021.6
20260901100115 68 202 1.0 2.0 0.00 0.00 0.00 58 1021.6
20260901094114 67 225 1.0 1.0 0.00 0.00 0.00 63 1021.7
20260901093114 66 180 1.0 2.0 0.00 0.00 0.00 65 1021.7
20260901092114 65 247 0.0 0.0 0.00 0.00 0.00 63 1021.9
20260901090114 65 90 2.0 0.0 0.00 0.00 0.00 67 1021.9
20260901085114 64 157 1.0 3.0 0.00 0.00 0.00 69 1021.9
20260901084114 64 337 1.0 0.0 0.00 0.00 0.00 67 1022.2
20260901082114 63 202 1.0 0.0 0.00 0.00 0.00 70 1022.3
20260901081113 63 45 1.0 1.0 0.00 0.00 0.00 72 1022.3
20260901080113 62 112 1.0 0.0 0.00 0.00 0.00 73 1022.3
20260901074113 61 180 1.0 1.0 0.00 0.00 0.00 75 1023.0
20260901073113 60 202 0.0 0.0 0.00 0.00 0.00 75 1023.0
20260901071113 60 225 1.0 0.0 0.00 0.00 0.00 80 1022.3
20260901070113 60 157 1.0 2.0 0.00 0.00 0.00 80 1022.4
20260901065113 59 135 0.0 0.0 0.00 0.00 0.00 80 1022.4
20260901064113 59 157 0.0 0.0 0.00 0.00 0.00 81 1022.4
20260901060112 58 135 0.0 1.0 0.00 0.00 0.00 81 1022.2
20260901055112 58 135 1.0 0.0 0.00 0.00 0.00 81 1022.2
20260901054112 58 135 0.0 0.0 0.00 0.00 0.00 81 1022.0
20260901053112 58 90 0.0 1.0 0.00 0.00 0.00 83 1022.0
20260901052113 57 135 0.0 0.0 0.00 0.00 0.00 83 1022.0
20260901050112 57 135 0.0 0.0 0.00 0.00 0.00 83 1022.7
20260901044113 57 180 1.0 1.0 0.00 0.00 0.00 83 1022.0
20260901043112 57 112 1.0 0.0 0.00 0.00 0.00 82 1022.0
20260901041112 56 202 0.0 1.0 0.00 0.00 0.00 82 1021.9
20260901040112 57 135 1.0 0.0 0.00 0.00 0.00 81 1022.0
20260901035112 57 112 1.0 2.0 0.00 0.00 0.00 82 1022.0
20260901033113 57 202 0.0 0.0 0.00 0.00 0.00 81 1021.9
20260901032113 57 135 0.0 0.0 0.00 0.00 0.00 82 1022.2
20260901031113 58 67 0.0 0.0 0.00 0.00 0.00 82 1022.2
20260901030114 58 202 0.0 0.0 0.00 0.00 0.00 82 1022.2
20260901025112 58 67 0.0 0.0 0.00 0.00 0.00 82 1022.2
20260901023112 58 157 1.0 1.0 0.00 0.00 0.00 82 1022.2
20260901022112 58 135 0.0 0.0 0.00 0.00 0.00 82 1022.2
20260901021112 58 157 0.0 0.0 0.00 0.00 0.00 82 1022.2
20260901020113 58 202 0.0 0.0 0.00 0.00 0.00 82 1022.2
20260901015112 59 202 0.0 0.0 0.00 0.00 0.00 82 1022.2
20260901014113 59 135 0.0 0.0 0.00 0.00 0.00 82 1021.9
20260901013113 59 135 0.0 0.0 0.00 0.00 0.00 82 1021.9
20260901012113 59 135 0.0 0.0 0.00 0.00 0.00 82 1021.8
20260901011111 59 157 0.0 1.0 0.00 0.00 0.00 83 1021.8
20260901010111 59 90 0.0 1.0 0.00 0.00 0.00 82 1021.9
20260901005111 59 247 0.0 0.0 0.00 0.00 0.00 82 1021.9
20260901004111 59 112 0.0 0.0 0.00 0.00 0.00 80 1021.8
20260901002111 59 90 0.0 0.0 0.00 0.00 0.00 81 1021.7
20260901001111 59 90 0.0 1.0 0.00 0.00 0.00 81 1021.7
20260901000111 59 67 0.0 2.0 0.00 0.00 0.00 81 1021.9
20260831235111 59 225 0.0 0.0 0.00 0.00 0.00 82 1021.9
20260831234111 59 180 0.0 0.0 0.00 0.00 0.00 81 1021.8
20260831233113 59 135 0.0 1.0 0.00 0.00 0.00 81 1021.8
20260831231111 59 90 0.0 1.0 0.00 0.00 0.00 80 1021.8
20260831230111 59 157 0.0 0.0 0.00 0.00 0.00 80 1021.7
20260831225111 59 135 0.0 0.0 0.00 0.00 0.00 80 1021.7
20260831224111 59 157 0.0 0.0 0.00 0.00 0.00 79 1021.8
20260831223111 60 112 0.0 0.0 0.00 0.00 0.00 79 1021.8
20260831221111 60 225 1.0 0.0 0.00 0.00 0.00 80 1021.6
20260831220115 60 180 1.0 0.0 0.00 0.00 0.00 79 1021.6
20260831214116 60 135 1.0 1.0 0.00 0.00 0.00 79 1021.6
20260831213114 60 157 1.0 1.0 0.00 0.00 0.00 79 1021.6
20260831212114 60 247 1.0 1.0 0.00 0.00 0.00 79 1021.3
20260831211114 60 112 2.0 2.0 0.00 0.00 0.00 79 1021.3
20260831210115 60 67 1.0 4.0 0.00 0.00 0.00 79 1021.2
20260831204114 61 202 0.0 0.0 0.00 0.00 0.00 80 1021.0
20260831203114 61 157 0.0 1.0 0.00 0.00 0.00 81 1021.0
20260831202114 61 90 2.0 1.0 0.00 0.00 0.00 79 1021.0
20260831195114 62 67 1.0 2.0 0.00 0.00 0.00 78 1020.9
20260831194114 62 112 2.0 1.0 0.00 0.00 0.00 79 1020.9
20260831193113 62 157 1.0 2.0 0.00 0.00 0.00 79 1020.9
20260831192115 62 202 1.0 0.0 0.00 0.00 0.00 78 1020.7
20260831191113 62 90 1.0 1.0 0.00 0.00 0.00 77 1020.7
20260831185113 63 292 0.0 0.0 0.00 0.00 0.00 74 1020.0
20260831184113 63 202 1.0 3.0 0.00 0.00 0.00 71 1019.4
20260831180113 64 135 0.0 1.0 0.00 0.00 0.00 74 1017.8
20260831175113 65 247 3.0 3.0 0.00 0.00 0.00 74 1017.8
20260831174113 65 247 1.0 3.0 0.00 0.00 0.00 77 1018.2
20260831173113 65 90 1.0 1.0 0.00 0.00 0.00 77 1018.2
20260831172112 66 247 3.0 4.0 0.00 0.00 0.00 78 1017.2
20260831171113 66 202 3.0 6.0 0.00 0.00 0.00 77 1017.2
20260831170112 67 292 2.0 0.0 0.00 0.00 0.00 72 1016.9
20260831165112 67 225 1.0 4.0 0.00 0.00 0.00 77 1016.9
20260831163112 67 225 0.0 0.0 0.00 0.00 0.00 78 1016.8
20260831162112 67 202 0.0 0.0 0.00 0.00 0.00 76 1016.6
20260831161112 68 90 0.0 1.0 0.00 0.00 0.00 74 1016.6
20260831160112 68 360 2.0 3.0 0.00 0.00 0.00 75 1016.4
20260831155112 69 247 4.0 3.0 0.00 0.00 0.00 72 1016.4
20260831153111 70 270 4.0 3.0 0.00 0.00 0.00 67 1015.9
20260831152111 71 225 2.0 4.0 0.00 0.00 0.00 69 1016.2
20260831150111 72 360 3.0 3.0 0.00 0.00 0.00 67 1016.6
20260831144111 75 360 5.0 8.0 0.00 0.00 0.00 54 1016.2
20260831143111 76 67 4.0 6.0 0.00 0.00 0.00 54 1016.2
20260831142112 77 337 3.0 2.0 0.00 0.00 0.00 54 1016.2
20260831141111 78 247 4.0 4.0 0.00 0.00 0.00 54 1016.2
20260831140112 78 292 4.0 4.0 0.00 0.00 0.00 54 1016.1
20260831133110 77 247 1.0 1.0 0.00 0.00 0.00 55 1016.2
20260831132111 77 112 0.0 2.0 0.00 0.00 0.00 55 1016.3
20260831131110 77 270 1.0 2.0 0.00 0.00 0.00 55 1016.3
20260831130110 76 247 1.0 2.0 0.00 0.00 0.00 55 1016.6
20260831125110 76 202 0.0 1.0 0.00 0.00 0.00 60 1016.6
20260831124110 75 337 1.0 2.0 0.00 0.00 0.00 59 1016.7
20260831122115 75 180 1.0 1.0 0.00 0.00 0.00 64 1016.9